Terug naar catalogus

STARLINK-5385

ActiefCommunicatieVLEO
NORAD 54821·PAYLOAD·🇺🇸 United States

Gelanceerd Dec 28, 2022 vanaf Cape Canaveral Space Force Station

Loading…

Volgende Passages (komende 24 uur)

TLE

VersSource: CelesTrak SupGP

Epoch: Sep 14, 2026, 21:22 UTC

1 54821C 22177B   26257.89076389 -.00040233  00000+0 -14572-2 0  2572
2 54821  42.9994 147.4916 0001222 240.7644 348.3587 15.27599988    17

Volg STARLINK-5385 in realtime met AllMySat

Download on the App Store